{"data":{"norad_id":57985,"epoch":"2026-09-20T21:13:12.838368Z","epoch_age_seconds":104362,"freshness":"FRESH","line1":"1 57985U 23151X   26263.88417637  .00000370  00000+0  22968-4 0  9999","line2":"2 57985  43.0041 328.5156 0001169 276.4016  83.6702 15.27578907165381","mean_motion":15.27578907,"eccentricity":0.0001169,"inclination_deg":43.0041,"raan_deg":328.5156,"arg_perigee_deg":276.4016,"mean_anomaly_deg":83.6702,"bstar":2.2968e-5,"rev_number":16538,"period_min":94.266816162577,"perigee_km":482.25029583959,"apogee_km":483.85444191403,"semimajor_km":6861.1893688768,"source":"CELESTRAK","updated_at":"2026-09-21T09:00:33.752690Z"}}